Home   Weather   Hilversum   Past weeks

Flag for Netherlands Past Weather in Hilversum, Netherlands — Yesterday and Last 2 Weeks

Now
43 °F

Light rain. Overcast.


Feels Like: 42 °F
Forecast: 37 / 53 °F
Wind: 3 mph from Southwest

Location: De Bilt

Current Time: Apr 28, 2017 at 6:40:04 am

Latest Report: Apr 28, 2017 at 5:00 am


Visibility: 4 mi

Pressure: 29.92 "Hg

Humidity: 94%

Dew Point: 42 °F

Location of HilversumLocation

Past Weather in Hilversum — Graph

°F

Hilversum Temperature Yesterday

Maximum temperature yesterday: 51 °F (at 3:00 pm)
Minimum temperature yesterday: 29 °F (at 6:00 am)
Average temperature yesterday: 42 °F

High & Low Weather Summary for the Past Weeks

 TemperatureHumidityPressure
High58 °F (Apr 21, 1:00 pm)100% (Apr 26, 6:00 am)30.65 "Hg (Apr 26, 6:00 am)
Low27 °F (Apr 20, 6:00 am)37% (Apr 20, 3:00 pm)29.70 "Hg (Apr 25, 4:00 am)
Average45 °F72%30.18 "Hg
* Reported Apr 13 5:00 am — Apr 28 5:00 am, Hilversum, Weather by CustomWeather, © 2017

Note: Actual official high and low records may vary slightly from our data, if they occured in-between our weather recording intervals... More about our weather records

Advertising

Hilversum Weather History for the Previous 24 Hours

Scroll right to see more
 ConditionsComfort  
Time TempWeatherWind HumidityBarometerVisibility
5:00 am
Fri, Apr 28
43 °FLight rain. Overcast.3 mph94%29.92 "Hg4 mi
4:00 am44 °FOvercast.2 mph91%29.93 "Hg7 mi
3:00 am45 °FOvercast.3 mph81%29.94 "Hg15 mi
2:00 am44 °FOvercast.2 mph78%29.95 "Hg18 mi
1:00 am44 °FOvercast.2 mph76%29.96 "Hg19 mi
12:00 am44 °FOvercast.3 mph73%29.97 "Hg19 mi
11:00 pm
Thu, Apr 27
44 °FOvercast.2 mph71%29.98 "Hg19 mi
10:00 pm45 °FOvercast.2 mph66%29.99 "Hg25 mi
9:00 pm46 °FOvercast.3 mph62%29.99 "Hg25 mi
8:00 pm47 °FOvercast.3 mph60%29.99 "Hg28 mi
7:00 pm48 °FOvercast.3 mph53%29.99 "Hg28 mi
6:00 pm49 °FOvercast.6 mph50%29.99 "Hg25 mi
5:00 pm51 °FOvercast.5 mph52%30.00 "Hg22 mi
4:00 pm50 °FOvercast.6 mph57%30.01 "Hg19 mi
3:00 pm51 °FOvercast.6 mph50%30.01 "Hg19 mi
2:00 pm50 °FOvercast.7 mph60%30.01 "Hg19 mi
1:00 pm47 °FOvercast.5 mph59%30.02 "Hg22 mi
12:00 pm44 °FRain showers. Overcast.6 mph71%30.04 "Hg7 mi
11:00 am47 °FOvercast.2 mph56%30.03 "Hg22 mi
10:00 am47 °FOvercast.2 mph58%30.03 "Hg19 mi
9:00 am44 °FScattered clouds.2 mph72%30.03 "Hg22 mi
8:00 am39 °FOvercast.1 mph91%30.03 "Hg10 mi
7:00 am31 °FSunny.1 mph100%30.02 "Hg1 mi
6:00 am29 °FClear.No wind100%30.01 "Hg2 mi
Weather by CustomWeather, © 2017

See weather overviewHow to use our weather pages